Location: Dry Lake
(38.5688°N, 119.2804°W)
Time: 14:18:09
(UTC+00:00)

Daily predictions for brighter satellites

Satellite Brightness Start Highest point End
(mag) Time Altitude Azimuth Time Altitude Azimuth Time Altitude Azimuth
STARLINK-1062 3.6 12:04:08 36° SW 12:05:42 76° SE 12:09:50 10° NE
NOSS 3-2 (A) 4.2 12:04:18 26° W 12:06:38 35° NW 12:12:28 10° NNE
Cosmos 1975 3.5 12:04:22 10° NNW 12:07:56 34° W 12:07:56 34° W
PAYLOAD A 4.1 12:02:43 10° NNE 12:08:09 90° E 12:13:24 10° SSW
Meteor 1-13 Rocket 4.2 12:04:25 10° S 12:10:12 89° ESE 12:15:55 10° N
STARLINK-1053 3.6 12:08:56 33° SW 12:10:42 84° SE 12:14:51 10° NE
Meteor 1-12 Rocket 4.3 12:08:43 10° N 12:14:43 85° W 12:20:33 10° S
STARLINK-1061 3.5 12:13:42 30° SW 12:15:39 88° NW 12:19:48 10° NE
Cosmos 1867 4.4 12:10:49 10° S 12:16:02 50° ESE 12:21:17 10° NE
CZ-2C R/B 2.2 12:11:48 10° NNE 12:16:24 90° W 12:20:59 10° SSW
Cosmos 1674 Rocket 3.7 12:12:07 10° S 12:16:31 78° E 12:20:55 10° N
CENTAUR R/B 2.7 12:14:42 24° WSW 12:18:14 55° NW 12:24:56 10° NNE
STARLINK-1067 3.5 12:18:29 27° SW 12:20:39 81° NW 12:24:48 10° NE
Cosmos 2221 Rocket 4.3 12:23:08 23° WSW 12:25:04 33° WNW 12:29:05 10° NNW
STARLINK-1058 3.6 12:23:16 25° WSW 12:25:37 73° NW 12:29:45 10° NE
Cosmos 494 Rocket 4.0 12:22:12 10° NNW 12:27:22 59° WSW 12:32:32 10° S
Meteor 1-4 Rocket 2.7 12:24:39 14° SSW 12:27:44 58° W 12:31:28 10° N
SeaSat 1 2.6 12:23:43 10° SSE 12:28:38 80° ENE 12:33:35 10° NNW
ALOS 4.0 12:25:02 10° NNE 12:29:18 34° E 12:33:31 10° SSE
STARLINK-52 4.0 12:29:31 25° WSW 12:29:48 26° SW 12:32:31 10° S
STARLINK-1043 3.7 12:28:01 22° WSW 12:30:34 66° NW 12:34:42 10° NE
STARLINK-1065 3.7 12:29:05 21° WSW 12:31:41 65° NW 12:35:48 10° NE
Cosmos 1269 Rocket 4.0 12:27:43 10° NNW 12:33:03 77° WSW 12:38:20 10° SSE
SL-16 R/B 2.3 12:27:59 10° NNW 12:33:29 52° WSW 12:38:56 10° S
SJ-6F 4.4 12:32:08 10° N 12:36:15 67° WNW 12:40:22 10° SSW
NOSS 3-2 (C) 4.2 12:32:47 17° W 12:36:37 34° NW 12:42:28 10° NNE
Cosmos 967 Rocket 4.5 12:30:53 10° NNW 12:37:21 81° WSW 12:43:43 10° SSE
Meteor 1-31 Rocket 2.9 12:35:39 10° NNE 12:39:36 83° ESE 12:43:31 10° S
Okean 2 Rocket 3.8 12:36:21 10° NNW 12:40:20 31° W 12:44:19 10° SSW
Meteor 1-23 Rocket 4.3 12:34:49 10° S 12:40:30 87° E 12:46:18 10° N
STARLINK-1063 3.9 12:37:35 17° WSW 12:40:32 55° NW 12:44:38 10° NE
Cosmos 2151 Rocket 3.8 12:37:03 10° NNW 12:41:15 45° W 12:45:26 10° SSW
PSLV R/B 3.9 12:38:00 10° S 12:42:13 83° WSW 12:46:26 10° NNW
Cosmos 389 Rocket 4.3 12:41:42 15° W 12:42:22 15° WNW 12:44:34 10° NW
Cosmos 1300 Rocket 4.1 12:38:36 10° NNW 12:42:31 35° W 12:46:27 10° SSW
STARLINK-1064 4.0 12:42:23 16° WSW 12:45:33 50° NW 12:49:36 10° NE
CZ-4B R/B 3.7 12:42:00 10° N 12:45:56 83° WNW 12:49:41 10° SSW
Timation 1 Rocket 4.4 12:40:04 10° SSW 12:46:04 86° ESE 12:52:07 10° NNE
Cosmos 1627 Rocket 4.4 12:41:59 10° S 12:48:08 80° W 12:54:16 10° N
Cosmos 2195 Rocket 4.5 12:43:49 10° SSW 12:49:55 70° W 12:56:08 10° N
STARLINK-1041 4.1 12:47:11 14° WSW 12:50:33 46° NW 12:54:34 10° NE
IDEFIX/ARIANE 42P 4.2 12:49:30 10° NNW 12:52:28 16° WNW 12:55:25 10° W
Cosmos 1689 Rocket 3.4 12:52:09 10° SSW 12:54:32 21° W 12:56:55 10° NW
STARLINK-1038 4.3 12:51:57 12° WSW 12:55:32 42° NW 12:59:30 10° NE
Cosmos 1603 4.3 12:50:29 10° NNW 12:56:05 64° ENE 13:01:39 10° SSE
Cosmos 1378 Rocket 3.8 12:52:39 10° SSW 12:56:50 48° W 13:01:04 10° N
CZ-4B R/B 3.4 12:56:53 11° WSW 12:57:53 12° W 12:59:11 10° WNW
BREEZE-M DEB (TANK) 3.6 12:56:38 10° WNW 12:58:29 15° NNW 12:59:54 10° NNE
STARLINK-1046 4.4 12:56:44 10° WSW 13:00:33 39° NW 13:04:28 10° NE
CZ-4B R/B 3.2 13:04:11 10° N 13:08:26 61° WNW 13:12:50 10° SSW
Cosmos 1766 4.0 13:06:03 10° N 13:09:54 59° E 13:13:42 10° SSE
Cosmos 2263 Rocket 2.3 13:05:48 10° SSW 13:11:24 67° WNW 13:17:05 10° NNE
ATLAS 3B R/B 3.1 13:06:57 10° WSW 13:13:14 43° NW 13:19:32 10° NNE
